Find Sedna-2

NORAD ID: 63153 Int'l Des: 2025-009 Owner: CLAAC Country: UK operational
LEOCIRCULARRETROGRADESSO

当前视图

正在加载3D地球...

About Sedna-2

Sedna-2 (NORAD 63153) is a satellite launched Jan 14, 2025 by CLAAC of UK. It operates in LEO, CIRCULAR, RETROGRADE, SSO orbit with a mass of 10.00 kg.

即将过境

Passes for default location (London). Set your location on the main map for personalized predictions.

高度历史

Loading altitude history...

两行轨道根数

1 63153U 25009DQ 26194.78748014 .00003277 00000-0 19314-3 0 9995
2 63153 97.4536 267.6996 0007904 339.7045 20.3870 15.12250620 82149
Epoch: Jul 13, 2026 • Age: 10 hours

当前状态

高度 537.9 km
远地点 / 近地点 N/A
速度 7.59 km/s
星下点 -3.50°S, 77.02°E
发射日期 Jan 14, 2025
运行时间 1.4 years
类型 other

技术详情

分类 Payload
质量 10.00 kg
干质量 10.00 kg
总质量 10.00 kg
长度 0.40 m
直径 0.10 m
跨度 0.40 m
形状 Box
制造商 CLAAC
平台类型 Cubesat 1x4U
阶段状态 In Orbit
所有者/国家 CLAAC/UK

Most Searched